DECAYED

CZ-2F DEB, 61684 (Decayed)

Orbit data source: Space-Track

CZ-2F DEB, 61684 was space debris in LEO originally from a launch on Tue, 29 Oct 2024 UTC launched from the Jiuquan Satellite Launch Center, China (JSC). Debris objects in space refer to the collection of defunct objects orbiting the Earth. Examples of debris include non-operational satellites, rocket bodies, and fragments generated from explosions, collisions, or faulty payload assembly.

Not visible in the next 10 days
CZ-2F DEB details
Identifier
61684, 2024-194B
Orbit
Decayed
Last TLE update1 month ago
Origin
Flag of CNCALT (CN / PRC)
ManufacturerCALT?
MissionDecayed spacecraft
Bus & MotorUnknown
Mass1 kg wet, 1 kg dry
Launch date (UTC)
2024-10-29 (2 months ago)
Launch vehicleUnknown
Launch site
Jiuquan Satellite Launch Center, China (JSC)
Object type
Payload
Rocket body
Debris
Shape & HBRUnknown
Radar Cross SectionLarge (>1 m²)

Expand to show TLE details & history

TLE from 1 month ago
0 CZ-2F DEB
1 61684U 24194B   24327.96353995  .00465987  65563-5  48903-3 0  9998
2 61684  41.3237 193.5705 0257846 294.4302  62.9836 15.68300172  3788
Epoch: 2024-11-22T23:07Z
Definitive object data (Epoch: 2024-11-22T23:07:29.851Z)
Latitude-0.00008°
Longitude144.27265°
Altitude288.015 km
Speed7.78 km/s
True Right ascension12h 54m 16s
True Declination0° 00' 00"
Sunlit
Object was in daylight at TLE epoch
Visualization TLE readout
Latitude-29.55222°
Longitude152.22365°
Altitude208.968 km
Speed7.824 km/s
Apparent Right ascension17h 18m 49s
Apparent Declination-64° 13' 60"
Sunlit
Object is in daylight
Visualization observer readout
Local Sidereal Time10:55:20
Azimuth146.855° SSE
Elevation-37.732°
Doppler factor1
Orbital elements
Apogee altitude539.927 km
Perigee altitude192.136 km
Semi-major axis6,744.168 km
Eccentricity0.0257846
Inclination41.3237°
RAAN193.5705°
Arg. of periapsis294.4302°
True anomaly65.65399°
Mean anomaly62.9836°
Eccentric anomaly64.31497°
Mean motion3.91878 °/min
BSTAR0.00048903
Orbital period91.87 mins
Loading maneuver chart data...
Loading historical data...
Loading historical data...
Loading historical data...
Loading historical data...
Loading historical data...
Loading historical data...
Loading historical data...
Other satellites on launch #194 in the year 2024 (2024-10-29 UTC)

CZ-2F DEB Visibility forecast

Observer location: undefined°, undefined

This satellite is decayed
Span
Click to sort rows by Start time (UTC) header in descending order
Start Az.
Max El. time (UTC)
Max El. Az.
Max El.
End time (UTC)
End Az.
|